Time,TemperatureF,DewpointF,PressureIn,WindDirection,WindDirectionDegrees,WindSpeedMPH,WindSpeedGustMPH,Humidity,HourlyPrecipIn,Conditions,Clouds,dailyrainin,SoftwareType,DateUTC
2013-09-23 00:11:00,52.9,48.0,30.00,NE,44,2.0,-999.0,84,-99.99,,,0.00,weatherlink.com 1.10,2013-09-23 04:11:00,
2013-09-23 00:26:00,52.5,48.0,30.00,NE,42,4.0,-999.0,84,-99.99,,,0.00,weatherlink.com 1.10,2013-09-23 04:26:00,
2013-09-23 00:42:00,52.3,48.0,30.01,NE,50,2.0,-999.0,85,-99.99,,,0.00,weatherlink.com 1.10,2013-09-23 04:42:00,
2013-09-23 00:57:00,52.0,48.0,30.01,NE,45,4.0,-999.0,85,-99.99,,,0.00,weatherlink.com 1.10,2013-09-23 04:57:00,
2013-09-23 01:12:00,51.7,47.0,30.01,NE,46,2.0,-999.0,85,-99.99,,,0.00,weatherlink.com 1.10,2013-09-23 05:12:00,
2013-09-23 01:27:00,51.2,47.0,30.01,NE,46,3.0,-999.0,86,-99.99,,,0.00,weatherlink.com 1.10,2013-09-23 05:27:00,
2013-09-23 01:42:00,50.7,47.0,30.01,NE,46,4.0,-999.0,87,-99.99,,,0.00,weatherlink.com 1.10,2013-09-23 05:42:00,
2013-09-23 01:57:00,50.5,47.0,30.01,NE,46,5.0,-999.0,88,-99.99,,,0.00,weatherlink.com 1.10,2013-09-23 05:57:00,
2013-09-23 02:12:00,50.2,47.0,30.01,NE,42,3.0,-999.0,88,-99.99,,,0.00,weatherlink.com 1.10,2013-09-23 06:12:00,
2013-09-23 02:27:00,49.9,47.0,30.02,NE,42,4.0,-999.0,89,-99.99,,,0.00,weatherlink.com 1.10,2013-09-23 06:27:00,
2013-09-23 02:42:00,49.6,47.0,30.02,NE,42,4.0,-999.0,89,-99.99,,,0.00,weatherlink.com 1.10,2013-09-23 06:42:00,
2013-09-23 02:57:00,49.4,47.0,30.02,NE,41,1.0,-999.0,90,-99.99,,,0.00,weatherlink.com 1.10,2013-09-23 06:57:00,
2013-09-23 03:12:00,49.1,46.0,30.02,NE,41,0.0,-999.0,90,-99.99,,,0.00,weatherlink.com 1.10,2013-09-23 07:12:00,
2013-09-23 03:27:00,48.8,46.0,30.02,NE,41,0.0,-999.0,90,-99.99,,,0.00,weatherlink.com 1.10,2013-09-23 07:27:00,
2013-09-23 03:42:00,48.5,46.0,30.02,NE,41,0.0,-999.0,91,-99.99,,,0.00,weatherlink.com 1.10,2013-09-23 07:42:00,
2013-09-23 03:57:00,48.1,46.0,30.01,NE,41,0.0,-999.0,91,-99.99,,,0.00,weatherlink.com 1.10,2013-09-23 07:57:00,
2013-09-23 04:12:00,48.0,46.0,30.01,NE,41,2.0,-999.0,91,-99.99,,,0.00,weatherlink.com 1.10,2013-09-23 08:12:00,
2013-09-23 04:27:00,47.9,46.0,30.01,NE,41,0.0,-999.0,91,-99.99,,,0.00,weatherlink.com 1.10,2013-09-23 08:27:00,
2013-09-23 04:42:00,47.5,45.0,30.01,NE,41,0.0,-999.0,91,-99.99,,,0.00,weatherlink.com 1.10,2013-09-23 08:42:00,
2013-09-23 04:57:00,47.1,45.0,30.02,NE,41,2.0,-999.0,92,-99.99,,,0.00,weatherlink.com 1.10,2013-09-23 08:57:00,
2013-09-23 05:12:00,46.7,45.0,30.01,NE,41,0.0,-999.0,92,-99.99,,,0.00,weatherlink.com 1.10,2013-09-23 09:12:00,
2013-09-23 05:27:00,46.7,45.0,30.01,NE,41,0.0,-999.0,93,-99.99,,,0.00,weatherlink.com 1.10,2013-09-23 09:27:00,
2013-09-23 05:42:00,46.3,44.0,30.02,NE,41,1.0,-999.0,92,-99.99,,,0.00,weatherlink.com 1.10,2013-09-23 09:42:00,
2013-09-23 05:57:00,46.1,44.0,30.02,NE,41,1.0,-999.0,93,-99.99,,,0.00,weatherlink.com 1.10,2013-09-23 09:57:00,
2013-09-23 06:12:00,46.1,44.0,30.02,NE,41,1.0,-999.0,93,-99.99,,,0.00,weatherlink.com 1.10,2013-09-23 10:12:00,
2013-09-23 06:27:00,46.0,44.0,30.03,NE,41,1.0,-999.0,93,-99.99,,,0.00,weatherlink.com 1.10,2013-09-23 10:27:00,
2013-09-23 06:42:00,45.7,44.0,30.04,NE,41,0.0,-999.0,93,-99.99,,,0.00,weatherlink.com 1.10,2013-09-23 10:42:00,
2013-09-23 06:57:00,45.4,44.0,30.05,NE,41,0.0,-999.0,93,-99.99,,,0.00,weatherlink.com 1.10,2013-09-23 10:57:00,
2013-09-23 07:12:00,45.2,44.0,30.05,NE,41,0.0,-999.0,94,-99.99,,,0.00,weatherlink.com 1.10,2013-09-23 11:12:00,
2013-09-23 07:27:00,45.1,44.0,30.05,NE,41,0.0,-999.0,94,-99.99,,,0.00,weatherlink.com 1.10,2013-09-23 11:27:00,
2013-09-23 07:42:00,45.0,44.0,30.05,NE,41,1.0,-999.0,95,-99.99,,,0.00,weatherlink.com 1.10,2013-09-23 11:42:00,
2013-09-23 07:57:00,45.4,44.0,30.06,NE,41,0.0,-999.0,95,-99.99,,,0.00,weatherlink.com 1.10,2013-09-23 11:57:00,
2013-09-23 08:12:00,45.8,44.0,30.06,NE,41,0.0,-999.0,94,-99.99,,,0.00,weatherlink.com 1.10,2013-09-23 12:12:00,
2013-09-23 08:27:00,46.1,45.0,30.07,NE,41,0.0,-999.0,95,-99.99,,,0.00,weatherlink.com 1.10,2013-09-23 12:27:00,
2013-09-23 08:42:00,47.0,45.0,30.07,NE,41,0.0,-999.0,94,-99.99,,,0.00,weatherlink.com 1.10,2013-09-23 12:42:00,
2013-09-23 08:57:00,48.5,47.0,30.07,NE,41,0.0,-999.0,94,-99.99,,,0.00,weatherlink.com 1.10,2013-09-23 12:57:00,
2013-09-23 09:12:00,51.1,49.0,30.07,SE,133,4.0,-999.0,91,-99.99,,,0.00,weatherlink.com 1.10,2013-09-23 13:12:00,
2013-09-23 09:28:00,52.4,49.0,30.07,SSE,150,2.0,-999.0,88,-99.99,,,0.00,weatherlink.com 1.10,2013-09-23 13:28:00,
2013-09-23 09:43:00,54.2,50.0,30.07,SE,140,0.0,-999.0,86,-99.99,,,0.00,weatherlink.com 1.10,2013-09-23 13:43:00,
2013-09-23 09:58:00,55.9,51.0,30.07,SE,142,2.0,-999.0,84,-99.99,,,0.00,weatherlink.com 1.10,2013-09-23 13:58:00,
2013-09-23 10:13:00,57.5,52.0,30.07,South,177,0.0,-999.0,82,-99.99,,,0.00,weatherlink.com 1.10,2013-09-23 14:13:00,
2013-09-23 10:28:00,58.8,52.0,30.07,SE,137,1.0,-999.0,79,-99.99,,,0.00,weatherlink.com 1.10,2013-09-23 14:28:00,
2013-09-23 10:43:00,60.7,53.0,30.07,SE,138,5.0,-999.0,75,-99.99,,,0.00,weatherlink.com 1.10,2013-09-23 14:43:00,
2013-09-23 10:58:00,62.3,53.0,30.07,ESE,105,5.0,-999.0,72,-99.99,,,0.00,weatherlink.com 1.10,2013-09-23 14:58:00,
2013-09-23 11:13:00,63.6,52.0,30.07,SE,129,5.0,-999.0,67,-99.99,,,0.00,weatherlink.com 1.10,2013-09-23 15:13:00,
2013-09-23 11:28:00,64.2,52.0,30.07,SE,131,6.0,-999.0,64,-99.99,,,0.00,weatherlink.com 1.10,2013-09-23 15:28:00,
2013-09-23 11:43:00,65.2,52.0,30.07,South,184,4.0,-999.0,62,-99.99,,,0.00,weatherlink.com 1.10,2013-09-23 15:43:00,
2013-09-23 11:58:00,66.1,51.0,30.07,ESE,103,2.0,-999.0,59,-99.99,,,0.00,weatherlink.com 1.10,2013-09-23 15:58:00,
2013-09-23 12:13:00,66.1,50.0,30.06,East,84,2.0,-999.0,57,-99.99,,,0.00,weatherlink.com 1.10,2013-09-23 16:13:00,
2013-09-23 12:28:00,66.7,52.0,30.07,SE,130,1.0,-999.0,60,-99.99,,,0.00,weatherlink.com 1.10,2013-09-23 16:28:00,
2013-09-23 12:44:00,67.3,49.0,30.07,ESE,103,2.0,-999.0,52,-99.99,,,0.00,weatherlink.com 1.10,2013-09-23 16:44:00,
2013-09-23 12:58:00,67.9,49.0,30.06,ESE,115,2.0,-999.0,52,-99.99,,,0.00,weatherlink.com 1.10,2013-09-23 16:58:00,
2013-09-23 13:13:00,68.4,51.0,30.05,East,98,5.0,-999.0,55,-99.99,,,0.00,weatherlink.com 1.10,2013-09-23 17:13:00,
2013-09-23 13:28:00,68.8,50.0,30.05,NE,40,4.0,-999.0,51,-99.99,,,0.00,weatherlink.com 1.10,2013-09-23 17:28:00,
2013-09-23 13:43:00,68.9,50.0,30.05,ENE,76,1.0,-999.0,52,-99.99,,,0.00,weatherlink.com 1.10,2013-09-23 17:43:00,
2013-09-23 13:58:00,69.5,50.0,30.04,SW,218,1.0,-999.0,51,-99.99,,,0.00,weatherlink.com 1.10,2013-09-23 17:58:00,
2013-09-23 14:13:00,70.1,52.0,30.04,SE,137,1.0,-999.0,52,-99.99,,,0.00,weatherlink.com 1.10,2013-09-23 18:13:00,
2013-09-23 14:28:00,70.6,51.0,30.04,ENE,73,2.0,-999.0,50,-99.99,,,0.00,weatherlink.com 1.10,2013-09-23 18:28:00,
2013-09-23 14:43:00,70.0,50.0,30.03,NE,34,7.0,-999.0,49,-99.99,,,0.00,weatherlink.com 1.10,2013-09-23 18:43:00,
2013-09-23 14:58:00,70.1,50.0,30.02,ENE,78,4.0,-999.0,49,-99.99,,,0.00,weatherlink.com 1.10,2013-09-23 18:58:00,
2013-09-23 15:13:00,70.8,50.0,30.02,NNE,31,4.0,-999.0,48,-99.99,,,0.00,weatherlink.com 1.10,2013-09-23 19:13:00,
2013-09-23 15:28:00,70.8,49.0,30.02,East,92,2.0,-999.0,47,-99.99,,,0.00,weatherlink.com 1.10,2013-09-23 19:28:00,
2013-09-23 15:43:00,71.2,50.0,30.01,East,88,6.0,-999.0,48,-99.99,,,0.00,weatherlink.com 1.10,2013-09-23 19:43:00,
2013-09-23 15:58:00,71.3,50.0,30.00,East,101,4.0,-999.0,47,-99.99,,,0.00,weatherlink.com 1.10,2013-09-23 19:58:00,
2013-09-23 16:14:00,72.1,50.0,30.00,SSE,147,5.0,-999.0,46,-99.99,,,0.00,weatherlink.com 1.10,2013-09-23 20:14:00,
2013-09-23 16:29:00,72.0,51.0,30.00,East,98,4.0,-999.0,47,-99.99,,,0.00,weatherlink.com 1.10,2013-09-23 20:29:00,
2013-09-23 16:44:00,72.4,50.0,29.99,East,99,2.0,-999.0,45,-99.99,,,0.00,weatherlink.com 1.10,2013-09-23 20:44:00,
2013-09-23 16:59:00,72.0,51.0,29.99,East,90,2.0,-999.0,47,-99.99,,,0.00,weatherlink.com 1.10,2013-09-23 20:59:00,
2013-09-23 17:14:00,72.2,50.0,29.99,East,80,3.0,-999.0,45,-99.99,,,0.00,weatherlink.com 1.10,2013-09-23 21:14:00,
2013-09-23 17:29:00,71.9,50.0,29.99,SE,144,6.0,-999.0,46,-99.99,,,0.00,weatherlink.com 1.10,2013-09-23 21:29:00,
2013-09-23 17:44:00,72.2,49.0,29.99,ESE,106,2.0,-999.0,44,-99.99,,,0.00,weatherlink.com 1.10,2013-09-23 21:44:00,
2013-09-23 17:59:00,71.8,50.0,29.99,ESE,107,0.0,-999.0,46,-99.99,,,0.00,weatherlink.com 1.10,2013-09-23 21:59:00,
2013-09-23 18:14:00,72.1,50.0,29.99,SE,138,2.0,-999.0,45,-99.99,,,0.00,weatherlink.com 1.10,2013-09-23 22:14:00,
2013-09-23 18:44:00,71.2,50.0,29.99,ESE,103,4.0,-999.0,47,-99.99,,,0.00,weatherlink.com 1.10,2013-09-23 22:44:00,
2013-09-23 18:59:00,70.0,49.0,29.99,East,93,1.0,-999.0,48,-99.99,,,0.00,weatherlink.com 1.10,2013-09-23 22:59:00,
2013-09-23 19:14:00,68.9,49.0,30.00,East,93,2.0,-999.0,50,-99.99,,,0.00,weatherlink.com 1.10,2013-09-23 23:14:00,
2013-09-23 19:29:00,67.4,50.0,30.00,East,93,1.0,-999.0,53,-99.99,,,0.00,weatherlink.com 1.10,2013-09-23 23:29:00,
2013-09-23 19:44:00,65.9,49.0,29.99,East,93,0.0,-999.0,55,-99.99,,,0.00,weatherlink.com 1.10,2013-09-23 23:44:00,
2013-09-23 19:59:00,64.2,50.0,29.99,East,93,1.0,-999.0,60,-99.99,,,0.00,weatherlink.com 1.10,2013-09-23 23:59:00,
2013-09-23 20:14:00,63.1,50.0,29.99,East,93,1.0,-999.0,62,-99.99,,,0.00,weatherlink.com 1.10,2013-09-24 00:14:00,
2013-09-23 20:29:00,61.9,49.0,29.99,East,93,1.0,-999.0,64,-99.99,,,0.00,weatherlink.com 1.10,2013-09-24 00:29:00,
2013-09-23 20:44:00,61.3,50.0,30.00,East,93,0.0,-999.0,66,-99.99,,,0.00,weatherlink.com 1.10,2013-09-24 00:44:00,
2013-09-23 20:59:00,60.5,49.0,30.00,East,93,0.0,-999.0,67,-99.99,,,0.00,weatherlink.com 1.10,2013-09-24 00:59:00,
2013-09-23 21:14:00,59.3,50.0,30.00,East,93,1.0,-999.0,70,-99.99,,,0.00,weatherlink.com 1.10,2013-09-24 01:14:00,
2013-09-23 21:29:00,58.5,49.0,30.00,East,93,1.0,-999.0,71,-99.99,,,0.00,weatherlink.com 1.10,2013-09-24 01:29:00,
2013-09-23 21:44:00,58.1,49.0,30.01,East,93,1.0,-999.0,72,-99.99,,,0.00,weatherlink.com 1.10,2013-09-24 01:44:00,
2013-09-23 21:59:00,57.8,49.0,30.01,East,93,0.0,-999.0,72,-99.99,,,0.00,weatherlink.com 1.10,2013-09-24 01:59:00,
2013-09-23 22:14:00,57.2,49.0,30.01,East,93,1.0,-999.0,73,-99.99,,,0.00,weatherlink.com 1.10,2013-09-24 02:14:00,
2013-09-23 22:29:00,56.6,48.0,30.01,East,93,2.0,-999.0,74,-99.99,,,0.00,weatherlink.com 1.10,2013-09-24 02:29:00,
2013-09-23 22:44:00,56.4,49.0,30.01,East,93,2.0,-999.0,75,-99.99,,,0.00,weatherlink.com 1.10,2013-09-24 02:44:00,
2013-09-23 22:59:00,55.7,49.0,30.01,East,93,1.0,-999.0,77,-99.99,,,0.00,weatherlink.com 1.10,2013-09-24 02:59:00,
2013-09-23 23:14:00,55.1,48.0,30.01,East,93,2.0,-999.0,78,-99.99,,,0.00,weatherlink.com 1.10,2013-09-24 03:14:00,
2013-09-23 23:29:00,54.7,49.0,30.00,East,92,1.0,-999.0,80,-99.99,,,0.00,weatherlink.com 1.10,2013-09-24 03:29:00,
2013-09-23 23:44:00,54.2,49.0,30.00,East,92,0.0,-999.0,81,-99.99,,,0.00,weatherlink.com 1.10,2013-09-24 03:44:00,
2013-09-23 23:59:00,53.7,48.0,30.00,East,92,1.0,-999.0,82,-99.99,,,0.00,weatherlink.com 1.10,2013-09-24 03:59:00,